User: anonymous   Login
Location: Mat�lon
(46.2791°N, 7.1028°E)
Time: 03:13:35
(UTC+00:00)
Language:

Cosmos 2082 Rocket - Orbit

View from above orbital plane
View from above orbital plane
View from above satellite
View from above satellite

Ground track
Ground track

The orbit data is extracted from the following two-line orbital elements,

1 20625U 90046B   20332.84439239 +.00000110 +00000-0 +82096-4 0  9997
2 20625 070.9998 025.2474 0014619 345.0948 014.9741 14.14656992575726
Epoch (UTC): 27 November 2020 20:15:55
Eccentricity: 0.0014619
inclination: 70.9998°
perigee height: 833 km
apogee height: 854 km
right ascension of ascending node: 25.2474°
argument of perigee: 345.0948°
revolutions per day: 14.14656992
mean anomaly at epoch: 14.9741°
orbit number at epoch: 57572

The dashed part of the orbit path shows where the satellite is in the earth's shadow,  

DLR